Location: Bremen
(53.0793°N, 8.8017°E)
Time: 23:07:02
(UTC+02:00)

Vanguard 2 Rocket - Pass Details

Date: 18 April 2024
Orbit: 556 x 3304 km, 32.9° (Epoch: 20 May)

Event Time Altitude Azimuth Distance (km) Brightness Sun altitude
Rises 00:37:27 0° 236° (WSW) 6,881 11.2 -25.2°
Reaches altitude 10° 00:42:21 10° 229° (SW) 6,070 10.8 -25.4°
Maximum altitude 00:59:18 38° 172° (S) 4,316 9.7 -25.8°
Drops below altitude 10° 01:14:34 10° 113° (ESE) 5,496 10.6 -26.0°
Sets 01:18:41 0° 106° (ESE) 6,195 11.0 -26.0°
